PAC8256 KATL-RKSI

Flight info

Callsign PAC8256
Flight time N/A
Altitude 34000
Route N0503F340 VARNM2 GLAZR DCT 45N090W/N0496F360 50N095W 54N100W 58N110W 60N120W/N0493F380 61N130W DCT GAHAM NCA14 GKN DCT DTOUR DCT 62N160W 61N170W/N0503F400 DCT KIVAK B932 MORLY R338 NATES R220 NYMPH/N0503F300 R220 NODAN R217 ASTER/N0504F340 Y514 SDE Y512 GTC Y142 SAMON Y14 SUGNO Y16 SAPRA Y685 GUKDO GUKDO2E
Aircraft B748/H-SADE1E2E3FGHIJ1J2J3J4J5J7M1M3P2RWXYZ/LB1D1G1

Departure

Time 2026-05-01 14:58
Airport Hartsfield Jackson Atlanta International Airport (KATL)

Arrival

Time N/A
Airport Incheon International Airport (RKSI)
Time Latitude Longitude Altitude Speed Heading
2026-05-01 13:34 33.62742 -84.42950 1039 ft 0 kts 270°
2026-05-01 14:45 33.62741 -84.42939 1039 ft 4 kts 268°
2026-05-01 14:46 33.62743 -84.42908 1039 ft 4 kts 268°
2026-05-01 14:46 33.62730 -84.42864 1039 ft 4 kts 327°
2026-05-01 14:46 33.62710 -84.42855 1039 ft 4 kts
2026-05-01 14:47 33.62687 -84.42856 1039 ft 1 kts 360°
2026-05-01 14:50 33.62797 -84.42857 1039 ft 14 kts 360°
2026-05-01 14:51 33.62895 -84.42857 1039 ft 14 kts 360°
2026-05-01 14:51 33.62989 -84.42915 1039 ft 7 kts 347°
2026-05-01 14:52 33.63072 -84.42989 1039 ft 14 kts 274°
2026-05-01 14:52 33.63073 -84.43109 1039 ft 14 kts 270°
2026-05-01 14:52 33.63073 -84.43352 1039 ft 14 kts 270°
2026-05-01 14:53 33.63073 -84.43467 1039 ft 13 kts 270°
2026-05-01 14:53 33.63072 -84.43575 1039 ft 13 kts 270°
2026-05-01 14:53 33.63072 -84.43679 1039 ft 12 kts 270°
2026-05-01 14:53 33.63072 -84.43784 1039 ft 18 kts 270°
2026-05-01 14:54 33.63072 -84.43992 1039 ft 25 kts 270°
2026-05-01 14:54 33.63072 -84.44190 1039 ft 23 kts 270°
2026-05-01 14:54 33.63072 -84.44314 1039 ft 22 kts 270°
2026-05-01 14:54 33.63073 -84.44495 1039 ft 21 kts 270°
2026-05-01 14:55 33.63075 -84.44723 1039 ft 17 kts 279°
2026-05-01 14:55 33.63142 -84.44779 1039 ft 13 kts 356°
2026-05-01 14:55 33.63228 -84.44780 1039 ft 12 kts 357°
2026-05-01 14:55 33.63311 -84.44783 1039 ft 12 kts 359°
2026-05-01 14:56 33.63391 -84.44783 1039 ft 11 kts
2026-05-01 14:56 33.63426 -84.44783 1039 ft 2 kts
2026-05-01 14:56 33.63442 -84.44780 1039 ft 3 kts 20°
2026-05-01 14:56 33.63452 -84.44768 1039 ft 3 kts 50°
2026-05-01 14:57 33.63466 -84.44734 1039 ft 10 kts 78°
2026-05-01 14:57 33.63471 -84.43441 1040 ft 148 kts 89°
2026-05-01 14:57 33.63475 -84.41989 1219 ft 189 kts 90°
2026-05-01 14:58 33.63471 -84.40426 2141 ft 190 kts 89°
2026-05-01 14:58 33.63480 -84.38802 3005 ft 193 kts 90°
2026-05-01 14:58 33.63473 -84.37740 3404 ft 195 kts 90°
2026-05-01 14:59 33.63472 -84.37620 3437 ft 196 kts 90°
2026-05-01 14:59 33.63458 -84.36044 3991 ft 195 kts 89°
2026-05-01 14:59 33.63447 -84.34359 4360 ft 206 kts 90°
2026-05-01 14:59 33.63434 -84.32561 4564 ft 224 kts 90°
2026-05-01 15:00 33.63421 -84.30720 4764 ft 241 kts 90°
2026-05-01 15:01 33.63416 -84.30067 4881 ft 244 kts 90°
2026-05-01 15:01 33.63401 -84.27916 5229 ft 258 kts 90°
2026-05-01 15:02 33.63426 -84.25706 5640 ft 270 kts 83°
2026-05-01 15:02 33.63761 -84.24249 5986 ft 277 kts 66°
2026-05-01 15:02 33.65199 -84.21675 7019 ft 281 kts 51°
2026-05-01 15:02 33.66537 -84.19930 7711 ft 289 kts 46°
2026-05-01 15:03 33.68197 -84.18544 8334 ft 296 kts 23°
2026-05-01 15:03 33.70194 -84.17959 9082 ft 297 kts
2026-05-01 15:03 33.70885 -84.17862 9293 ft 299 kts
2026-05-01 15:04 33.71452 -84.17808 9484 ft 299 kts
2026-05-01 15:04 33.73516 -84.17755 10358 ft 296 kts 357°
2026-05-01 15:04 33.75553 -84.17825 11278 ft 289 kts 355°
2026-05-01 15:04 33.77579 -84.17889 11982 ft 293 kts 355°
2026-05-01 15:05 33.79617 -84.17910 12764 ft 293 kts 355°
2026-05-01 15:05 33.81632 -84.17909 13461 ft 294 kts 354°
2026-05-01 15:05 33.83650 -84.18065 14132 ft 286 kts 339°
2026-05-01 15:05 33.85469 -84.18987 14722 ft 279 kts 325°
2026-05-01 15:06 33.87149 -84.20229 15043 ft 291 kts 321°
2026-05-01 15:06 33.88823 -84.21640 15363 ft 304 kts 318°
2026-05-01 15:06 33.90575 -84.23251 15556 ft 322 kts 316°
2026-05-01 15:06 33.92356 -84.24963 15779 ft 340 kts 316°
2026-05-01 15:07 33.94246 -84.26795 15994 ft 358 kts 316°
2026-05-01 15:07 33.96241 -84.28717 16166 ft 377 kts 316°
2026-05-01 15:07 33.98342 -84.30735 16374 ft 394 kts 316°
2026-05-01 15:07 34.00504 -84.32793 17179 ft 394 kts 316°
2026-05-01 15:08 34.02628 -84.34826 18253 ft 389 kts 315°
2026-05-01 15:08 34.04766 -84.36842 18998 ft 392 kts 315°
2026-05-01 15:08 34.06710 -84.38664 19588 ft 396 kts 315°
2026-05-01 15:08 34.08885 -84.40740 20096 ft 403 kts 314°
2026-05-01 15:09 34.11098 -84.42844 20772 ft 405 kts 314°
2026-05-01 15:09 34.13307 -84.44962 21566 ft 404 kts 314°
2026-05-01 15:09 34.15507 -84.47078 22259 ft 406 kts 313°
2026-05-01 15:09 34.17721 -84.49201 22979 ft 406 kts 313°
2026-05-01 15:10 34.19944 -84.51333 23514 ft 412 kts 313°
2026-05-01 15:10 34.24470 -84.55681 24545 ft 420 kts 313°
2026-05-01 15:10 34.26910 -84.57745 24831 ft 441 kts 323°
2026-05-01 15:11 34.29870 -84.59043 25193 ft 466 kts 337°
2026-05-01 15:11 34.36467 -84.60272 26012 ft 490 kts 345°
2026-05-01 15:11 34.39889 -84.60580 26434 ft 497 kts 346°
2026-05-01 15:12 34.43364 -84.60815 26911 ft 500 kts 346°
2026-05-01 15:12 34.50337 -84.61333 27661 ft 507 kts 346°
2026-05-01 15:12 34.53872 -84.61617 28022 ft 510 kts 346°
2026-05-01 15:13 34.64265 -84.62486 29251 ft 513 kts 345°
2026-05-01 15:14 34.71344 -84.63085 30217 ft 509 kts 344°
2026-05-01 15:14 34.74867 -84.63385 30666 ft 507 kts 344°
2026-05-01 15:14 34.81860 -84.63982 31624 ft 500 kts 343°
2026-05-01 15:15 34.88762 -84.64574 32497 ft 494 kts 342°
2026-05-01 15:15 34.95567 -84.65161 33368 ft 487 kts 342°
2026-05-01 15:16 35.02260 -84.65739 33959 ft 484 kts 341°
2026-05-01 15:16 35.08970 -84.66320 34060 ft 483 kts 341°
2026-05-01 15:18 35.25767 -84.67775 34063 ft 484 kts 341°
2026-05-01 15:19 35.38813 -84.68909 34079 ft 483 kts 340°
2026-05-01 15:19 35.48863 -84.69786 34073 ft 482 kts 340°
2026-05-01 15:20 35.58865 -84.70660 34070 ft 482 kts 340°
2026-05-01 15:21 35.65552 -84.71245 34068 ft 481 kts 340°
2026-05-01 15:21 35.72230 -84.71832 34069 ft 481 kts 340°
2026-05-01 15:22 35.82248 -84.72712 34072 ft 481 kts 340°
2026-05-01 15:22 35.88925 -84.73300 34065 ft 480 kts 339°
2026-05-01 15:23 35.95580 -84.73889 34070 ft 480 kts 339°
2026-05-01 15:23 36.01999 -84.74455 34069 ft 481 kts 339°
2026-05-01 15:24 36.08686 -84.75045 34064 ft 482 kts 339°
2026-05-01 15:24 36.15369 -84.75639 34072 ft 481 kts 339°
2026-05-01 15:25 36.22043 -84.76232 34066 ft 481 kts 339°
2026-05-01 15:25 36.28729 -84.76828 34063 ft 481 kts 339°
2026-05-01 15:26 36.35401 -84.77424 34064 ft 481 kts 339°
2026-05-01 15:26 36.41933 -84.78386 34068 ft 452 kts 328°
2026-05-01 15:27 36.47795 -84.80903 34062 ft 441 kts 322°
2026-05-01 15:28 36.56158 -84.85370 34060 ft 434 kts 320°
2026-05-01 15:28 36.61496 -84.88253 34066 ft 434 kts 320°
2026-05-01 15:29 36.69805 -84.92718 34070 ft 435 kts 320°
2026-05-01 15:30 36.80089 -84.98206 34072 ft 438 kts 321°
2026-05-01 15:31 36.97786 -85.07692 34052 ft 437 kts 320°
2026-05-01 15:32 37.08967 -85.13718 34052 ft 437 kts 320°
2026-05-01 15:34 37.25461 -85.22640 34076 ft 438 kts 320°